This demonstration page uses our WeatherBlox Daily Observations layout. Learn more.

Left ArrowRight Arrow

Hourly Observations for September 25, 2015

Temp ( °F °C ) Dew Point ( °F °C ) Humidity (%) Winds ( mph kmh ) Pressure ( in mb ) Visibility ( mi km ) Precip ( " mm )
12:59 am 00:59 Cloudy 74 23.3 62 16.7 67 67 ENE 13 20 30.18 1022 10 16 0.00 0.00
1:59 am 01:59 Cloudy 74 23.3 62 16.7 67 67 E 14 22 30.18 1022 10 16 0.00 0.00
2:59 am 02:59 Cloudy 74 23.3 62 16.7 67 67 ENE 15 24 30.16 1021 10 16 0.00 0.00
3:59 am 03:59 Cloudy 74 23.3 63 17.2 69 69 E 17 28 30.15 1021 10 16 0.00 0.00
4:42 am 04:42 Cloudy 74 23.3 63 17.2 69 69 ENE 18 30 30.15 1021 10 16 0.00 0.00
4:59 am 04:59 Cloudy 74 23.3 63 17.2 69 69 ENE 13 20 30.14 1021 10 16 0.00 0.00
5:59 am 05:59 Cloudy 74 23.3 63 17.2 69 69 ENE 13 20 30.15 1021 10 16 0.00 0.00
6:59 am 06:59 Cloudy 74 23.3 64 17.8 71 71 ENE 15 24 30.16 1021 9 14 0.00 0.00
7:59 am 07:59 Cloudy 74 23.3 64 17.8 71 71 ENE 17 28 30.17 1022 8 13 0.00 0.03
8:30 am 08:30 Cloudy 74 23.3 64 17.8 71 71 ENE 18 30 30.18 1022 8 13 0.00 0.00
8:59 am 08:59 Cloudy with Light Rain 74 23.3 65 18.3 74 74 ENE 15 24 30.18 1022 8 13 0.00 0.03
9:59 am 09:59 Cloudy 75 23.9 64 17.8 69 69 E 16 26 30.18 1022 8 13 0.00 0.03
10:59 am 10:59 Cloudy with Light Rain 76 24.4 63 17.2 64 64 ENE 18 30 30.18 1022 9 14 0.00 0.03
11:59 am 11:59 Cloudy with Light Rain 74 23.3 65 18.3 74 74 ENE 18 30 30.18 1022 6 10 0.00 0.03
12:59 pm 12:59 Mostly Cloudy with Light Rain 75 23.9 65 18.3 71 71 ENE 14 22 30.17 1022 6 10 0.00 0.03
1:59 pm 13:59 Cloudy with Light Rain 75 23.9 65 18.3 71 71 ENE 18 30 30.16 1021 7 11 0.00 0.03
2:59 pm 14:59 Cloudy 75 23.9 64 17.8 69 69 ENE 20 31 30.15 1021 8 13 0.00 0.03
3:59 pm 15:59 Cloudy with Light Rain 75 23.9 65 18.3 71 71 ENE 20 31 30.15 1021 8 13 0.00 0.03
4:59 pm 16:59 Cloudy with Light Rain 72 22.2 67 19.4 84 84 ENE 21 33 30.15 1021 4 6 0.02 0.51
5:59 pm 17:59 Cloudy with Light Rain 72 22.2 66 18.9 82 82 ENE 17 28 30.14 1021 5 8 0.03 0.76
6:59 pm 18:59 Cloudy with Mist and Fog 73 22.8 66 18.9 79 79 ENE 15 24 30.15 1021 8 13 0.00 0.03
7:59 pm 19:59 Cloudy with Mist and Fog 73 22.8 66 18.9 79 79 NE 16 26 30.16 1021 8 13 0.00 0.03
8:59 pm 20:59 Cloudy with Light Rain 73 22.8 67 19.4 81 81 ENE 16 26 30.17 1022 7 11 0.00 0.03
9:59 pm 21:59 Cloudy with Light Rain 72 22.2 68 20 87 87 NE 15 24 30.17 1022 7 11 0.01 0.25
10:59 pm 22:59 Cloudy with Mist and Fog 73 22.8 68 20 84 84 NE 15 24 30.17 1022 7 11 0.00 0.03
11:59 pm 23:59 Cloudy with Light Rain 72 22.2 68 20 87 87 NE 16 26 30.17 1022 7 11 0.01 0.25

Powered by AerisWeather